,,Stat6,,Stat2,,Stat8,,Stat9,,Stat10,,Wind1,,Wind1,
time,status,PA1M_AVG,status,PR1M_SUM,status,RH1M_AVG,status,SR1M_AVG,status,TA1M_AVG,status,W1dAve1m,status,W1sAve1m,
2007-12-11, 00:00:00,VALID,916.698,VALID,0,VALID,100,VALID,-0.0509425,VALID,19.6464,VALID,84,VALID,0,
2007-12-11, 00:01:00,VALID,916.68,VALID,0,VALID,100,VALID,-0.0339617,VALID,19.6601,VALID,84,VALID,0,
2007-12-11, 00:02:00,VALID,916.694,VALID,0,VALID,100,VALID,-0.0169808,VALID,19.6751,VALID,84,VALID,0,
2007-12-11, 00:03:00,VALID,916.689,VALID,0,VALID,100,VALID,0,VALID,19.6881,VALID,84,VALID,0,
2007-12-11, 00:04:00,VALID,916.678,VALID,0,VALID,100,VALID,0,VALID,19.6883,VALID,84,VALID,0,
2007-12-11, 00:05:00,VALID,916.669,VALID,0,VALID,100,VALID,-0.0339617,VALID,19.6951,VALID,84,VALID,0,
2007-12-11, 00:06:00,VALID,916.673,VALID,0,VALID,100,VALID,-0.0679233,VALID,19.6918,VALID,84,VALID,0,
2007-12-11, 00:07:00,VALID,916.662,VALID,0,VALID,100,VALID,-0.0679233,VALID,19.6953,VALID,84,VALID,0,
2007-12-11, 00:08:00,VALID,916.646,VALID,0,VALID,100,VALID,0,VALID,19.6983,VALID,84,VALID,0,
2007-12-11, 00:09:00,VALID,916.636,VALID,0,VALID,100,VALID,-0.0169808,VALID,19.711,VALID,84,VALID,0,
2007-12-11, 00:10:00,VALID,916.623,VALID,0,VALID,100,VALID,-0.0679233,VALID,19.7507,VALID,84,VALID,0,
2007-12-11, 00:11:00,VALID,916.623,VALID,0.2,VALID,100,VALID,-0.0339617,VALID,19.7278,VALID,84,VALID,0,
2007-12-11, 00:12:00,VALID,916.607,VALID,0,VALID,100,VALID,-0.0339617,VALID,19.6988,VALID,84,VALID,0,
2007-12-11, 00:13:00,VALID,916.585,VALID,0,VALID,100,VALID,0,VALID,19.6656,VALID,84,VALID,0,
2007-12-11, 00:14:00,VALID,916.573,VALID,0.2,VALID,100,VALID,0.0169808,VALID,19.6461,VALID,84,VALID,0,
2007-12-11, 00:15:00,VALID,916.571,VALID,0,VALID,100,VALID,0,VALID,19.6427,VALID,84,VALID,0,
2007-12-11, 00:16:00,VALID,916.569,VALID,0,VALID,100,VALID,0,VALID,19.6599,VALID,84,VALID,0,
2007-12-11, 00:17:00,VALID,916.559,VALID,0.2,VALID,100,VALID,0,VALID,19.6594,VALID,84,VALID,0,
2007-12-11, 00:18:00,VALID,916.548,VALID,0.2,VALID,100,VALID,-0.0339617,VALID,19.6561,VALID,84,VALID,0,
2007-12-11, 00:19:00,VALID,916.538,VALID,0,VALID,100,VALID,0.0169808,VALID,19.6459,VALID,84,VALID,0,
2007-12-11, 00:20:00,VALID,916.525,VALID,0,VALID,100,VALID,-0.0169808,VALID,19.6397,VALID,84,VALID,0,
2007-12-11, 00:21:00,VALID,916.519,VALID,0,VALID,100,VALID,0,VALID,19.6529,VALID,84,VALID,0,
2007-12-11, 00:22:00,VALID,916.496,VALID,0,VALID,100,VALID,0.0169808,VALID,19.6719,VALID,84,VALID,0,
2007-12-11, 00:23:00,VALID,916.491,VALID,0.2,VALID,100,VALID,0,VALID,19.7016,VALID,84,VALID,0,
2007-12-11, 00:24:00,VALID,916.481,VALID,0,VALID,100,VALID,-0.0169808,VALID,19.7145,VALID,84,VALID,0,
2007-12-11, 00:25:00,VALID,916.457,VALID,0,VALID,100,VALID,-0.0339617,VALID,19.7108,VALID,84,VALID,0,
2007-12-11, 00:26:00,VALID,916.454,VALID,0,VALID,100,VALID,0,VALID,19.7208,VALID,84,VALID,0,
2007-12-11, 00:27:00,VALID,916.433,VALID,0,VALID,100,VALID,0,VALID,19.7238,VALID,84,VALID,0,
2007-12-11, 00:28:00,VALID,916.431,VALID,0,VALID,100,VALID,0.0169808,VALID,19.7108,VALID,84,VALID,0,
2007-12-11, 00:29:00,VALID,916.424,VALID,0,VALID,100,VALID,0,VALID,19.7041,VALID,84,VALID,0,
2007-12-11, 00:30:00,VALID,916.409,VALID,0,VALID,100,VALID,0,VALID,19.7175,VALID,84,VALID,0,
2007-12-11, 00:31:00,VALID,916.391,VALID,0,VALID,100,VALID,-0.0169808,VALID,19.7275,VALID,84,VALID,0,
2007-12-11, 00:32:00,VALID,916.383,VALID,0,VALID,100,VALID,0,VALID,19.7367,VALID,84,VALID,0,
2007-12-11, 00:33:00,VALID,916.37,VALID,0,VALID,100,VALID,0,VALID,19.7532,VALID,84,VALID,0,
2007-12-11, 00:34:00,VALID,916.368,VALID,0,VALID,100,VALID,0,VALID,19.7465,VALID,84,VALID,0,
2007-12-11, 00:35:00,VALID,916.366,VALID,0,VALID,100,VALID,0.0169808,VALID,19.7659,VALID,84,VALID,0,
2007-12-11, 00:36:00,VALID,916.348,VALID,0,VALID,100,VALID,-0.0339617,VALID,19.7759,VALID,84,VALID,0,
2007-12-11, 00:37:00,VALID,916.352,VALID,0,VALID,100,VALID,0,VALID,19.7792,VALID,84,VALID,0,
2007-12-11, 00:38:00,VALID,916.347,VALID,0,VALID,100,VALID,0,VALID,19.7662,VALID,84,VALID,0,
2007-12-11, 00:39:00,VALID,916.337,VALID,0,VALID,100,VALID,-0.0169808,VALID,19.7799,VALID,84,VALID,0,
2007-12-11, 00:40:00,VALID,916.336,VALID,0,VALID,100,VALID,0,VALID,19.7629,VALID,84,VALID,0,
2007-12-11, 00:41:00,VALID,916.336,VALID,0,VALID,100,VALID,-0.0169808,VALID,19.7467,VALID,84,VALID,0,
2007-12-11, 00:42:00,VALID,916.321,VALID,0,VALID,100,VALID,-0.0339617,VALID,19.7437,VALID,84,VALID,0,
2007-12-11, 00:43:00,VALID,916.314,VALID,0,VALID,100,VALID,0,VALID,19.7405,VALID,84,VALID,0,
2007-12-11, 00:44:00,VALID,916.308,VALID,0,VALID,100,VALID,-0.0339617,VALID,19.7532,VALID,84,VALID,0,
2007-12-11, 00:45:00,VALID,916.301,VALID,0,VALID,100,VALID,0,VALID,19.7662,VALID,84,VALID,0,
2007-12-11, 00:46:00,VALID,916.292,VALID,0,VALID,100,VALID,-0.0339617,VALID,19.7694,VALID,84,VALID,0,
2007-12-11, 00:47:00,VALID,916.29,VALID,0,VALID,100,VALID,0,VALID,19.7727,VALID,84,VALID,0,
2007-12-11, 00:48:00,VALID,916.281,VALID,0,VALID,100,VALID,0,VALID,19.734,VALID,84,VALID,0,
2007-12-11, 00:49:00,VALID,916.286,VALID,0,VALID,100,VALID,-0.0169808,VALID,19.7372,VALID,84,VALID,0,
2007-12-11, 00:50:00,VALID,916.275,VALID,0,VALID,100,VALID,0,VALID,19.7567,VALID,84,VALID,0,
2007-12-11, 00:51:00,VALID,916.267,VALID,0,VALID,100,VALID,-0.0169808,VALID,19.7278,VALID,67,VALID,0,
2007-12-11, 00:52:00,VALID,916.258,VALID,0,VALID,100,VALID,0.0169808,VALID,19.6524,VALID,8,VALID,0,
2007-12-11, 00:53:00,VALID,916.243,VALID,0,VALID,100,VALID,-0.0169808,VALID,19.6237,VALID,6,VALID,0,
2007-12-11, 00:54:00,VALID,916.235,VALID,0,VALID,100,VALID,0,VALID,19.6037,VALID,6,VALID,0,
2007-12-11, 00:55:00,VALID,916.218,VALID,0,VALID,100,VALID,0,VALID,19.6005,VALID,6,VALID,0,
2007-12-11, 00:56:00,VALID,916.193,VALID,0,VALID,100,VALID,-0.0169808,VALID,19.6007,VALID,6,VALID,0,
2007-12-11, 00:57:00,VALID,916.186,VALID,0,VALID,100,VALID,0,VALID,19.611,VALID,6,VALID,0,
2007-12-11, 00:58:00,VALID,916.178,VALID,0,VALID,100,VALID,0,VALID,19.6145,VALID,7,VALID,0,
2007-12-11, 00:59:00,VALID,916.17,VALID,0.2,VALID,100,VALID,-0.0169808,VALID,19.6075,VALID,6,VALID,0,
2007-12-11, 01:00:00,VALID,916.179,VALID,0,VALID,100,VALID,-0.0169808,VALID,19.607,VALID,6,VALID,0,
2007-12-11, 01:01:00,VALID,916.15,VALID,0,VALID,100,VALID,0,VALID,19.6145,VALID,6,VALID,0,
2007-12-11, 01:02:00,VALID,916.137,VALID,0,VALID,100,VALID,0,VALID,19.5912,VALID,6,VALID,0,
2007-12-11, 01:03:00,VALID,916.13,VALID,0,VALID,100,VALID,0,VALID,19.5718,VALID,6,VALID,0,
2007-12-11, 01:04:00,VALID,916.121,VALID,0.2,VALID,100,VALID,0,VALID,19.5683,VALID,6,VALID,0,
2007-12-11, 01:05:00,VALID,916.112,VALID,0,VALID,100,VALID,-0.0169808,VALID,19.5843,VALID,7,VALID,0,
2007-12-11, 01:06:00,VALID,916.1,VALID,0,VALID,100,VALID,-0.0169808,VALID,19.6137,VALID,6,VALID,0,
2007-12-11, 01:07:00,VALID,916.087,VALID,0,VALID,100,VALID,0,VALID,19.6167,VALID,6,VALID,0,
2007-12-11, 01:08:00,VALID,916.092,VALID,0,VALID,100,VALID,0,VALID,19.6202,VALID,6,VALID,0,
2007-12-11, 01:09:00,VALID,916.086,VALID,0,VALID,100,VALID,0,VALID,19.6137,VALID,6,VALID,0,
2007-12-11, 01:10:00,VALID,916.079,VALID,0,VALID,100,VALID,0,VALID,19.6005,VALID,6,VALID,0,
2007-12-11, 01:11:00,VALID,916.064,VALID,0,VALID,100,VALID,-0.0169808,VALID,19.5942,VALID,6,VALID,0,
2007-12-11, 01:12:00,VALID,916.032,VALID,0,VALID,100,VALID,-0.0509425,VALID,19.6037,VALID,352,VALID,0,
2007-12-11, 01:13:00,VALID,916.008,VALID,0,VALID,100,VALID,-0.0339617,VALID,19.5778,VALID,260,VALID,0.0675872,
2007-12-11, 01:14:00,VALID,915.987,VALID,0.2,VALID,100,VALID,0,VALID,19.5453,VALID,257,VALID,0.624826,
2007-12-11, 01:15:00,VALID,915.977,VALID,0,VALID,100,VALID,-0.0169808,VALID,19.5553,VALID,247,VALID,0.44407,
2007-12-11, 01:16:00,VALID,915.968,VALID,0,VALID,100,VALID,-0.0169808,VALID,19.5616,VALID,226,VALID,0.196766,
2007-12-11, 01:17:00,VALID,915.964,VALID,0.2,VALID,100,VALID,-0.0169808,VALID,19.5748,VALID,226,VALID,0,
2007-12-11, 01:18:00,VALID,915.947,VALID,0,VALID,100,VALID,-0.0509425,VALID,19.5945,VALID,226,VALID,0.000186012,
2007-12-11, 01:19:00,VALID,915.933,VALID,0,VALID,100,VALID,-0.0169808,VALID,19.5718,VALID,262,VALID,0.894804,
2007-12-11, 01:20:00,VALID,915.932,VALID,0,VALID,100,VALID,-0.0339617,VALID,19.4774,VALID,262,VALID,0.985417,
2007-12-11, 01:21:00,VALID,915.926,VALID,0.2,VALID,100,VALID,-0.0169808,VALID,19.4612,VALID,278,VALID,0.513338,
2007-12-11, 01:22:00,VALID,915.896,VALID,0,VALID,100,VALID,0.0169808,VALID,19.4415,VALID,280,VALID,0.73165,
2007-12-11, 01:23:00,VALID,915.896,VALID,0,VALID,100,VALID,0,VALID,19.4163,VALID,273,VALID,0.773624,
2007-12-11, 01:24:00,VALID,915.879,VALID,0,VALID,100,VALID,-0.0169808,VALID,19.3959,VALID,269,VALID,0.431548,
2007-12-11, 01:25:00,VALID,915.86,VALID,0,VALID,100,VALID,-0.0169808,VALID,19.3929,VALID,260,VALID,0.712695,
2007-12-11, 01:26:00,VALID,915.844,VALID,0,VALID,100,VALID,-0.0509425,VALID,19.3929,VALID,262,VALID,0.480078,
2007-12-11, 01:27:00,VALID,915.825,VALID,0.2,VALID,100,VALID,-0.0849042,VALID,19.4006,VALID,262,VALID,0.714749,
2007-12-11, 01:28:00,VALID,915.83,VALID,0,VALID,100,VALID,-0.118866,VALID,19.4011,VALID,266,VALID,1.01526,
2007-12-11, 01:29:00,VALID,915.821,VALID,0,VALID,100,VALID,-0.135847,VALID,19.3816,VALID,264,VALID,0.673828,
2007-12-11, 01:30:00,VALID,915.811,VALID,0,VALID,100,VALID,-0.101885,VALID,19.3719,VALID,263,VALID,0.65293,
2007-12-11, 01:31:00,VALID,915.802,VALID,0,VALID,100,VALID,-0.135847,VALID,19.3781,VALID,264,VALID,0.243676,
2007-12-11, 01:32:00,VALID,915.773,VALID,0,VALID,100,VALID,-0.135847,VALID,19.3781,VALID,268,VALID,0.657965,
2007-12-11, 01:33:00,VALID,915.76,VALID,0,VALID,100,VALID,-0.101885,VALID,19.3591,VALID,268,VALID,0.518945,
2007-12-11, 01:34:00,VALID,915.753,VALID,0.2,VALID,100,VALID,-0.118866,VALID,19.3492,VALID,262,VALID,1.03524,
2007-12-11, 01:35:00,VALID,915.736,VALID,0,VALID,100,VALID,-0.118866,VALID,19.3459,VALID,312,VALID,0.392149,
2007-12-11, 01:36:00,VALID,915.72,VALID,0,VALID,100,VALID,-0.0849042,VALID,19.3784,VALID,281,VALID,0.321514,
2007-12-11, 01:37:00,VALID,915.699,VALID,0,VALID,100,VALID,-0.101885,VALID,19.3781,VALID,275,VALID,0.223214,
2007-12-11, 01:38:00,VALID,915.695,VALID,0,VALID,100,VALID,-0.101885,VALID,19.3716,VALID,271,VALID,0.425686,
2007-12-11, 01:39:00,VALID,915.679,VALID,0,VALID,100,VALID,-0.101885,VALID,19.3524,VALID,266,VALID,0.499822,
2007-12-11, 01:40:00,VALID,915.692,VALID,0.2,VALID,100,VALID,-0.135847,VALID,19.3297,VALID,266,VALID,0.288281,
2007-12-11, 01:41:00,VALID,915.675,VALID,0,VALID,100,VALID,-0.101885,VALID,19.3489,VALID,266,VALID,0.378646,
2007-12-11, 01:42:00,VALID,915.667,VALID,0,VALID,100,VALID,-0.0339617,VALID,19.3412,VALID,266,VALID,0.120276,
2007-12-11, 01:43:00,VALID,915.655,VALID,0,VALID,100,VALID,-0.0339617,VALID,19.3714,VALID,269,VALID,0.304324,
2007-12-11, 01:44:00,VALID,915.639,VALID,0,VALID,100,VALID,-0.0339617,VALID,19.3509,VALID,284,VALID,0.383539,
2007-12-11, 01:45:00,VALID,915.631,VALID,0,VALID,100,VALID,-0.0339617,VALID,19.3315,VALID,247,VALID,0.739025,
2007-12-11, 01:46:00,VALID,915.62,VALID,0.2,VALID,100,VALID,-0.0169808,VALID,19.3182,VALID,258,VALID,0.576172,
2007-12-11, 01:47:00,VALID,915.608,VALID,0,VALID,100,VALID,0,VALID,19.3182,VALID,260,VALID,0.28418,
2007-12-11, 01:48:00,VALID,915.597,VALID,0,VALID,100,VALID,0,VALID,19.3377,VALID,270,VALID,0.105291,
2007-12-11, 01:49:00,VALID,915.584,VALID,0,VALID,100,VALID,0,VALID,19.3572,VALID,276,VALID,0.141868,
2007-12-11, 01:50:00,VALID,915.56,VALID,0,VALID,100,VALID,0,VALID,19.3669,VALID,276,VALID,0.271289,
2007-12-11, 01:51:00,VALID,915.553,VALID,0,VALID,100,VALID,0,VALID,19.3472,VALID,276,VALID,0.314732,
2007-12-11, 01:52:00,VALID,915.54,VALID,0.2,VALID,100,VALID,0,VALID,19.328,VALID,277,VALID,0.053267,
2007-12-11, 01:53:00,VALID,915.529,VALID,0,VALID,100,VALID,0,VALID,19.3312,VALID,277,VALID,0,
2007-12-11, 01:54:00,VALID,915.517,VALID,0,VALID,100,VALID,-0.0339617,VALID,19.3347,VALID,277,VALID,0,
2007-12-11, 01:55:00,VALID,915.503,VALID,0,VALID,100,VALID,-0.0169808,VALID,19.3442,VALID,277,VALID,0,
2007-12-11, 01:56:00,VALID,915.491,VALID,0,VALID,100,VALID,-0.0509425,VALID,19.3539,VALID,276,VALID,0.0708333,
2007-12-11, 01:57:00,VALID,915.48,VALID,0,VALID,100,VALID,-0.0169808,VALID,19.3572,VALID,276,VALID,0,
2007-12-11, 01:58:00,VALID,915.461,VALID,0,VALID,100,VALID,-0.0509425,VALID,19.3604,VALID,276,VALID,0,
2007-12-11, 01:59:00,VALID,915.449,VALID,0,VALID,100,VALID,-0.0339617,VALID,19.3864,VALID,276,VALID,0,
2007-12-11, 02:00:00,VALID,915.424,VALID,0,VALID,100,VALID,0.0169808,VALID,19.3993,VALID,276,VALID,0,
2007-12-11, 02:01:00,VALID,915.414,VALID,0,VALID,100,VALID,-0.0509425,VALID,19.4163,VALID,276,VALID,0,
2007-12-11, 02:02:00,VALID,915.395,VALID,0,VALID,100,VALID,-0.0169808,VALID,19.4091,VALID,276,VALID,0,
2007-12-11, 02:03:00,VALID,915.396,VALID,0,VALID,100,VALID,0,VALID,19.4255,VALID,276,VALID,0,
2007-12-11, 02:04:00,VALID,915.368,VALID,0.2,VALID,100,VALID,-0.0509425,VALID,19.4383,VALID,276,VALID,0,
2007-12-11, 02:05:00,VALID,915.355,VALID,0,VALID,100,VALID,-0.0339617,VALID,19.4577,VALID,276,VALID,0,
2007-12-11, 02:06:00,VALID,915.338,VALID,0,VALID,100,VALID,-0.0169808,VALID,19.4869,VALID,276,VALID,0,
2007-12-11, 02:07:00,VALID,915.318,VALID,0,VALID,100,VALID,0,VALID,19.4957,VALID,276,VALID,0,
2007-12-11, 02:08:00,VALID,915.302,VALID,0,VALID,100,VALID,0,VALID,19.5094,VALID,276,VALID,0,
2007-12-11, 02:09:00,VALID,915.298,VALID,0,VALID,100,VALID,0.0169808,VALID,19.4542,VALID,276,VALID,0,
2007-12-11, 02:10:00,VALID,915.281,VALID,0,VALID,100,VALID,0,VALID,19.4153,VALID,276,VALID,0,
2007-12-11, 02:11:00,VALID,915.281,VALID,0,VALID,100,VALID,0,VALID,19.4283,VALID,276,VALID,0,
2007-12-11, 02:12:00,VALID,915.269,VALID,0,VALID,100,VALID,-0.0339617,VALID,19.4091,VALID,276,VALID,0,
2007-12-11, 02:13:00,VALID,915.269,VALID,0,VALID,100,VALID,0.0169808,VALID,19.4051,VALID,276,VALID,0,
2007-12-11, 02:14:00,VALID,915.267,VALID,0,VALID,100,VALID,0,VALID,19.4121,VALID,276,VALID,0,
2007-12-11, 02:15:00,VALID,915.254,VALID,0,VALID,100,VALID,0,VALID,19.4123,VALID,276,VALID,0,
2007-12-11, 02:16:00,VALID,915.264,VALID,0,VALID,100,VALID,0,VALID,19.4218,VALID,276,VALID,0,
2007-12-11, 02:17:00,VALID,915.248,VALID,0,VALID,100,VALID,0,VALID,19.4385,VALID,276,VALID,0,
2007-12-11, 02:18:00,VALID,915.249,VALID,0,VALID,100,VALID,-0.0339617,VALID,19.4448,VALID,276,VALID,0,
2007-12-11, 02:19:00,VALID,915.247,VALID,0,VALID,100,VALID,-0.0679233,VALID,19.4353,VALID,285,VALID,0.170015,
2007-12-11, 02:20:00,VALID,915.242,VALID,0,VALID,100,VALID,-0.0509425,VALID,19.432,VALID,322,VALID,0.321584,
2007-12-11, 02:21:00,VALID,915.24,VALID,0,VALID,100,VALID,-0.0169808,VALID,19.4318,VALID,333,VALID,0.441497,
2007-12-11, 02:22:00,VALID,915.238,VALID,0,VALID,100,VALID,-0.0169808,VALID,19.451,VALID,347,VALID,0.473895,
2007-12-11, 02:23:00,VALID,915.217,VALID,0,VALID,100,VALID,-0.0169808,VALID,19.4545,VALID,351,VALID,0.141741,
2007-12-11, 02:24:00,VALID,915.207,VALID,0,VALID,100,VALID,-0.0509425,VALID,19.4253,VALID,351,VALID,0,
2007-12-11, 02:25:00,VALID,915.2,VALID,0,VALID,100,VALID,-0.0509425,VALID,19.4288,VALID,351,VALID,0.0438988,
2007-12-11, 02:26:00,VALID,915.178,VALID,0,VALID,100,VALID,-0.0169808,VALID,19.4058,VALID,351,VALID,0.064098,
2007-12-11, 02:27:00,VALID,915.173,VALID,0,VALID,100,VALID,-0.0679233,VALID,19.4293,VALID,351,VALID,0,
2007-12-11, 02:28:00,VALID,915.161,VALID,0,VALID,100,VALID,-0.0679233,VALID,19.3896,VALID,351,VALID,0,
2007-12-11, 02:29:00,VALID,915.135,VALID,0,VALID,100,VALID,-0.0339617,VALID,19.3637,VALID,351,VALID,0,
2007-12-11, 02:30:00,VALID,915.122,VALID,0,VALID,100,VALID,-0.101885,VALID,19.3704,VALID,351,VALID,0,
2007-12-11, 02:31:00,VALID,915.105,VALID,0,VALID,100,VALID,-0.0339617,VALID,19.3799,VALID,351,VALID,0,
2007-12-11, 02:32:00,VALID,915.083,VALID,0,VALID,100,VALID,-0.0339617,VALID,19.3963,VALID,351,VALID,0,
2007-12-11, 02:33:00,VALID,915.044,VALID,0,VALID,100,VALID,-0.0339617,VALID,19.3899,VALID,351,VALID,0,
2007-12-11, 02:34:00,VALID,915.032,VALID,0,VALID,100,VALID,-0.0509425,VALID,19.3604,VALID,351,VALID,0,
2007-12-11, 02:35:00,VALID,915.014,VALID,0.2,VALID,100,VALID,-0.0849042,VALID,19.3477,VALID,351,VALID,0,
2007-12-11, 02:36:00,VALID,915,VALID,0,VALID,100,VALID,-0.0339617,VALID,19.3212,VALID,351,VALID,0,
2007-12-11, 02:37:00,VALID,914.976,VALID,0,VALID,100,VALID,-0.0339617,VALID,19.3085,VALID,351,VALID,0,
2007-12-11, 02:38:00,VALID,914.974,VALID,0,VALID,100,VALID,-0.0679233,VALID,19.3085,VALID,351,VALID,0,
2007-12-11, 02:39:00,VALID,914.952,VALID,0,VALID,100,VALID,-0.0679233,VALID,19.3053,VALID,351,VALID,0,
2007-12-11, 02:40:00,VALID,914.932,VALID,0,VALID,100,VALID,-0.101885,VALID,19.3088,VALID,351,VALID,0,
2007-12-11, 02:41:00,VALID,914.925,VALID,0,VALID,100,VALID,-0.0679233,VALID,19.3118,VALID,351,VALID,0,
2007-12-11, 02:42:00,VALID,914.899,VALID,0,VALID,100,VALID,0.0509425,VALID,19.3105,VALID,351,VALID,0,
2007-12-11, 02:43:00,VALID,914.877,VALID,0,VALID,100,VALID,0.0509425,VALID,19.3145,VALID,351,VALID,0,
2007-12-11, 02:44:00,VALID,914.85,VALID,0,VALID,100,VALID,0.0169808,VALID,19.304,VALID,351,VALID,0,
2007-12-11, 02:45:00,VALID,914.815,VALID,0,VALID,100,VALID,0.0679233,VALID,19.2911,VALID,351,VALID,0,
2007-12-11, 02:46:00,VALID,914.808,VALID,0,VALID,100,VALID,0.0679233,VALID,19.308,VALID,351,VALID,0,
2007-12-11, 02:47:00,VALID,914.784,VALID,0,VALID,100,VALID,0.0169808,VALID,19.3175,VALID,351,VALID,0,
2007-12-11, 02:48:00,VALID,914.776,VALID,0,VALID,100,VALID,0.0509425,VALID,19.308,VALID,351,VALID,0,
2007-12-11, 02:49:00,VALID,914.768,VALID,0,VALID,100,VALID,0.0339617,VALID,19.3038,VALID,351,VALID,0,
2007-12-11, 02:50:00,VALID,914.758,VALID,0,VALID,100,VALID,0.0509425,VALID,19.2971,VALID,351,VALID,0,
2007-12-11, 02:51:00,VALID,914.747,VALID,0,VALID,100,VALID,0,VALID,19.3008,VALID,351,VALID,0,
2007-12-11, 02:52:00,VALID,914.739,VALID,0,VALID,100,VALID,0.0169808,VALID,19.3043,VALID,351,VALID,0,
2007-12-11, 02:53:00,VALID,914.729,VALID,0,VALID,100,VALID,0,VALID,19.3075,VALID,351,VALID,0,
2007-12-11, 02:54:00,VALID,914.71,VALID,0,VALID,100,VALID,0.0169808,VALID,19.314,VALID,351,VALID,0,
2007-12-11, 02:55:00,VALID,914.698,VALID,0,VALID,100,VALID,0.0169808,VALID,19.334,VALID,351,VALID,0,
2007-12-11, 02:56:00,VALID,914.677,VALID,0,VALID,100,VALID,0.0679233,VALID,19.3362,VALID,351,VALID,0,
2007-12-11, 02:57:00,VALID,914.667,VALID,0,VALID,100,VALID,-0.0849042,VALID,19.3384,VALID,351,VALID,0,
2007-12-11, 02:58:00,VALID,914.667,VALID,0,VALID,100,VALID,-0.101885,VALID,19.3282,VALID,351,VALID,0,
2007-12-11, 02:59:00,VALID,914.656,VALID,0,VALID,100,VALID,-0.0679233,VALID,19.3285,VALID,351,VALID,0,
2007-12-11, 03:00:00,VALID,914.639,VALID,0,VALID,100,VALID,-0.0849042,VALID,19.3028,VALID,351,VALID,0,
2007-12-11, 03:01:00,VALID,914.627,VALID,0,VALID,100,VALID,-0.0169808,VALID,19.2793,VALID,351,VALID,0,
2007-12-11, 03:02:00,VALID,914.619,VALID,0,VALID,100,VALID,-0.0509425,VALID,19.289,VALID,351,VALID,0,
2007-12-11, 03:03:00,VALID,914.618,VALID,0,VALID,100,VALID,-0.0169808,VALID,19.289,VALID,351,VALID,0,
2007-12-11, 03:04:00,VALID,914.614,VALID,0,VALID,100,VALID,-0.0169808,VALID,19.302,VALID,351,VALID,0,
2007-12-11, 03:05:00,VALID,914.613,VALID,0,VALID,100,VALID,-0.0509425,VALID,19.3118,VALID,351,VALID,0,
2007-12-11, 03:06:00,VALID,914.618,VALID,0,VALID,100,VALID,-0.0339617,VALID,19.2893,VALID,351,VALID,0,
2007-12-11, 03:07:00,VALID,914.612,VALID,0,VALID,100,VALID,-0.0169808,VALID,19.2858,VALID,351,VALID,0,
2007-12-11, 03:08:00,VALID,914.604,VALID,0,VALID,100,VALID,-0.0509425,VALID,19.2531,VALID,351,VALID,0,
2007-12-11, 03:09:00,VALID,914.594,VALID,0,VALID,100,VALID,-0.0509425,VALID,19.2569,VALID,351,VALID,0,
2007-12-11, 03:10:00,VALID,914.592,VALID,0,VALID,100,VALID,-0.101885,VALID,19.2633,VALID,351,VALID,0,
2007-12-11, 03:11:00,VALID,914.578,VALID,0,VALID,100,VALID,-0.0509425,VALID,19.2963,VALID,351,VALID,0,
2007-12-11, 03:12:00,VALID,914.574,VALID,0,VALID,100,VALID,0,VALID,19.3053,VALID,351,VALID,0.0644055,
2007-12-11, 03:13:00,VALID,914.562,VALID,0,VALID,100,VALID,-0.0169808,VALID,19.2893,VALID,351,VALID,0,
2007-12-11, 03:14:00,VALID,914.545,VALID,0,VALID,100,VALID,0.0169808,VALID,19.2758,VALID,351,VALID,0,
2007-12-11, 03:15:00,VALID,914.527,VALID,0,VALID,100,VALID,0,VALID,19.2631,VALID,351,VALID,0,
2007-12-11, 03:16:00,VALID,914.511,VALID,0,VALID,100,VALID,0,VALID,19.2469,VALID,351,VALID,0,
2007-12-11, 03:17:00,VALID,914.503,VALID,0,VALID,100,VALID,0,VALID,19.2469,VALID,351,VALID,0.0182292,
2007-12-11, 03:18:00,VALID,914.478,VALID,0,VALID,100,VALID,0,VALID,19.2599,VALID,352,VALID,0.169097,
2007-12-11, 03:19:00,VALID,914.47,VALID,0,VALID,100,VALID,0.0169808,VALID,19.2791,VALID,144,VALID,0.295759,
2007-12-11, 03:20:00,VALID,914.449,VALID,0,VALID,100,VALID,0,VALID,19.3053,VALID,144,VALID,0,
2007-12-11, 03:21:00,VALID,914.45,VALID,0,VALID,100,VALID,0,VALID,19.3215,VALID,144,VALID,0.160429,
2007-12-11, 03:22:00,VALID,914.417,VALID,0,VALID,100,VALID,0,VALID,19.3215,VALID,144,VALID,0.23637,
2007-12-11, 03:23:00,VALID,914.422,VALID,0,VALID,100,VALID,0,VALID,19.305,VALID,144,VALID,0.368641,
2007-12-11, 03:24:00,VALID,914.4,VALID,0,VALID,100,VALID,0,VALID,19.3053,VALID,144,VALID,0.266335,
2007-12-11, 03:25:00,VALID,914.413,VALID,0,VALID,100,VALID,0,VALID,19.3085,VALID,153,VALID,0.348133,
2007-12-11, 03:26:00,VALID,914.401,VALID,0,VALID,100,VALID,0,VALID,19.3018,VALID,160,VALID,0.23628,
2007-12-11, 03:27:00,VALID,914.399,VALID,0,VALID,100,VALID,-0.0169808,VALID,19.302,VALID,185,VALID,0.382457,
2007-12-11, 03:28:00,VALID,914.387,VALID,0,VALID,100,VALID,0,VALID,19.3118,VALID,186,VALID,0.294212,
2007-12-11, 03:29:00,VALID,914.368,VALID,0,VALID,100,VALID,0,VALID,19.2985,VALID,187,VALID,0.650391,
2007-12-11, 03:30:00,VALID,914.352,VALID,0,VALID,100,VALID,0,VALID,19.2821,VALID,188,VALID,0.545201,
2007-12-11, 03:31:00,VALID,914.339,VALID,0,VALID,100,VALID,0,VALID,19.2856,VALID,175,VALID,0.351215,
2007-12-11, 03:32:00,VALID,914.321,VALID,0,VALID,100,VALID,0.0169808,VALID,19.2823,VALID,180,VALID,0.711509,
2007-12-11, 03:33:00,VALID,914.313,VALID,0,VALID,100,VALID,0,VALID,19.2788,VALID,172,VALID,0.306818,
2007-12-11, 03:34:00,VALID,914.293,VALID,0,VALID,100,VALID,0.0169808,VALID,19.2985,VALID,177,VALID,0.432528,
2007-12-11, 03:35:00,VALID,914.283,VALID,0,VALID,100,VALID,0,VALID,19.2953,VALID,186,VALID,0.579397,
2007-12-11, 03:36:00,VALID,914.273,VALID,0,VALID,100,VALID,0,VALID,19.2955,VALID,169,VALID,0.904474,
2007-12-11, 03:37:00,VALID,914.269,VALID,0,VALID,100,VALID,-0.0339617,VALID,19.2828,VALID,173,VALID,1.13743,
2007-12-11, 03:38:00,VALID,914.253,VALID,0,VALID,100,VALID,-0.0169808,VALID,19.2659,VALID,184,VALID,0.726918,
2007-12-11, 03:39:00,VALID,914.253,VALID,0,VALID,100,VALID,-0.0169808,VALID,19.2663,VALID,175,VALID,0.376817,
2007-12-11, 03:40:00,VALID,914.244,VALID,0,VALID,100,VALID,0,VALID,19.2661,VALID,174,VALID,0.576172,
2007-12-11, 03:41:00,VALID,914.232,VALID,0,VALID,100,VALID,-0.0339617,VALID,19.2663,VALID,165,VALID,0.357376,
2007-12-11, 03:42:00,VALID,914.237,VALID,0,VALID,100,VALID,0,VALID,19.2696,VALID,184,VALID,0.769985,
2007-12-11, 03:43:00,VALID,914.223,VALID,0,VALID,100,VALID,-0.0169808,VALID,19.2531,VALID,185,VALID,0.669922,
2007-12-11, 03:44:00,VALID,914.22,VALID,0,VALID,100,VALID,-0.0169808,VALID,19.2561,VALID,184,VALID,0.204241,
2007-12-11, 03:45:00,VALID,914.202,VALID,0,VALID,100,VALID,0,VALID,19.2534,VALID,184,VALID,0.581555,
2007-12-11, 03:46:00,VALID,914.189,VALID,0,VALID,100,VALID,-0.0169808,VALID,19.2663,VALID,154,VALID,0.316592,
2007-12-11, 03:47:00,VALID,914.177,VALID,0,VALID,100,VALID,-0.0509425,VALID,19.2631,VALID,153,VALID,0.789063,
2007-12-11, 03:48:00,VALID,914.162,VALID,0,VALID,100,VALID,-0.0339617,VALID,19.2439,VALID,145,VALID,0.987614,
2007-12-11, 03:49:00,VALID,914.15,VALID,0,VALID,100,VALID,0,VALID,19.2371,VALID,146,VALID,0.853468,
2007-12-11, 03:50:00,VALID,914.152,VALID,0,VALID,100,VALID,0,VALID,19.2307,VALID,159,VALID,0.548437,
2007-12-11, 03:51:00,VALID,914.146,VALID,0,VALID,100,VALID,0,VALID,19.2309,VALID,157,VALID,0.351207,